Flag for Germany Weather past 2 weeks in Erfurt, Thuringia, Germany

Now
77 °F

Scattered clouds.


Feels Like: 79 °F
Forecast: 65 / 78 °F
Wind: 14 mph from East

Location: Erfurt-Bindersleben

Current Time: Jul 22, 2014 at 2:30:55 PM

Latest Report: Jul 22, 2014 at 1:50 PM


Visibility: N/A

Pressure: 30.01 "Hg

Humidity: 54%

Dew point: 59 °F

Location of ErfurtLocation

Historic Weather in Erfurt — Graph

°F

Erfurt temperature yesterday

Maximum temperature yesterday: 75 °F (at 1:50 PM)
Minimum temperature yesterday: 64 °F (at 4:50 AM)
Average temperature yesterday: 70 °F

Past Weeks' High & Low Weather Summary

 TemperatureHumidityPressure
High88 °F (Jul 19, 3:20 PM)100% (Jul 8, 3:50 AM)30.21 "Hg (Jul 8, 3:50 AM)
Low52 °F (Jul 9, 7:50 AM)25% (Jul 19, 6:20 PM)29.59 "Hg (Jul 9, 6:50 AM)
Average67 °F72%29.94 "Hg
* Reported Jul 7 1:20 PM — Jul 22 1:20 PM, Erfurt, Weather by CustomWeather, © 2014

Note: Actual official high and low records may vary slightly from our data, if they occured in-between our weather recording intervals... More about our weather records

Advertising

Erfurt weather history for previous 24 hours

 ConditionsComfort  
Time TempWeatherWind HumidityBarometerVisibility
1:20 PM
Jul 22
77 °FPassing clouds.14 mph54%30.01 "HgN/A
12:50 PM77 °FPassing clouds.12 mph61%30.01 "HgN/A
12:20 PM75 °FScattered clouds.12 mph61%30.01 "HgN/A
11:50 AM73 °FScattered clouds.9 mph69%30.01 "HgN/A
11:20 AM73 °FScattered clouds.8 mph69%30.01 "HgN/A
10:50 AM72 °FScattered clouds.7 mph69%30.01 "HgN/A
10:20 AM70 °FPartly sunny.9 mph73%30.01 "HgN/A
9:50 AM68 °FPartly sunny.10 mph78%30.01 "HgN/A
9:20 AM66 °FPartly sunny.10 mph83%30.01 "HgN/A
8:50 AM66 °FPartly sunny.13 mph83%30.01 "HgN/A
8:20 AM66 °FSunny.12 mph83%29.98 "Hg10 mi
7:50 AM64 °FSunny.12 mph88%29.98 "Hg10 mi
7:20 AM63 °FSunny.10 mph94%29.98 "Hg10 mi
6:50 AM63 °FSunny.8 mph88%29.98 "Hg10 mi
6:20 AM63 °FClear.8 mph88%29.95 "Hg10 mi
5:50 AM63 °FClear.8 mph88%29.95 "Hg10 mi
5:20 AM63 °FClear.7 mph88%29.95 "Hg10 mi
4:50 AM64 °FClear.8 mph83%29.92 "Hg10 mi
4:20 AM64 °FLight rain. Passing clouds.6 mph88%29.92 "HgN/A
3:50 AM64 °FPassing clouds.5 mph88%29.92 "HgN/A
3:20 AM64 °FPartly cloudy.6 mph94%29.92 "HgN/A
2:50 AM66 °FClear.7 mph88%29.92 "Hg10 mi
2:20 AM66 °FClear.9 mph88%29.92 "Hg10 mi
1:50 AM66 °FPartly cloudy.10 mph94%29.92 "HgN/A
1:20 AM66 °FPartly cloudy.8 mph94%29.92 "HgN/A
12:50 AM66 °FPartly cloudy.7 mph94%29.92 "HgN/A
12:20 AM66 °FScattered showers. Passing clouds.7 mph94%29.92 "HgN/A
11:50 PM
Jul 21
66 °FThundershowers. Partly cloudy.9 mph94%29.92 "HgN/A
11:20 PM66 °FThundershowers. Partly cloudy.12 mph94%29.92 "HgN/A
10:50 PM68 °FThunderstorms. Partly cloudy.9 mph94%29.89 "Hg5 mi
10:20 PM68 °FThunderstorms. Partly cloudy.6 mph94%29.89 "HgN/A
9:50 PM68 °FThundershowers. Partly sunny.6 mph94%29.89 "HgN/A
9:20 PM70 °FRain showers. Broken clouds.3 mph88%29.89 "Hg4 mi
8:50 PM70 °FThunderstorms. Broken clouds.5 mph88%29.89 "Hg3 mi
8:20 PM72 °FThunderstorms. Partly sunny.5 mph83%29.89 "HgN/A
7:50 PM72 °FThundershowers. Partly sunny.5 mph83%29.89 "HgN/A
7:20 PM72 °FLight rain. Clear.6 mph83%29.89 "HgN/A
6:50 PM72 °FLight rain. Clear.3 mph83%29.89 "HgN/A
6:20 PM73 °FBroken clouds.No wind78%29.89 "HgN/A
5:50 PM72 °FBroken clouds.3 mph83%29.89 "HgN/A
5:20 PM72 °FLight rain. Broken clouds.6 mph83%29.89 "Hg6 mi
4:50 PM72 °FLight rain. Partly sunny.7 mph83%29.86 "HgN/A
4:20 PM72 °FLight rain. Broken clouds.5 mph83%29.89 "HgN/A
3:50 PM73 °FBroken clouds.6 mph74%29.86 "HgN/A
3:20 PM73 °FPartly sunny.6 mph74%29.86 "HgN/A
2:50 PM73 °FScattered showers. Partly sunny.6 mph69%29.86 "HgN/A
2:20 PM73 °FScattered showers. Partly sunny.5 mph69%29.86 "HgN/A
Weather by CustomWeather, © 2014

See weather overviewHow to use our weather pages